Orbital Elements at Epoch 2459200.5 (2020-Dec-17.0) TDB
Reference: JPL 22 (heliocentric ecliptic J2000)
Element | Value | Uncertainty (1-sigma) | Units |
e | .1015859800548625 | 5.2073e-08 | |
a | 2.970141381311556 | 2.0277e-08 | au |
q | 2.668416658189519 | 1.5937e-07 | au |
i | 11.61977484045868 | 4.3956e-06 | deg |
node | 136.1515459319288 | 2.2594e-05 | deg |
peri | 202.8442026402423 | 3.7582e-05 | deg |
M | 24.40106952090042 | 2.6524e-05 | deg |
tp | 2459073.772615314719 (2020-Aug-12.27261531) | 0.00013817 | TDB |
period | 1869.666345879811 5.12 | 1.9147e-05 5.242e-08 | d yr |
n | .1925477242468064 | 1.9718e-09 | deg/d |
Q | 3.271866104433594 | 2.2337e-08 | au |
|
| | Orbit Determination Parameters
Additional Information
|